Aeroporto :
LOGIN :

Iscrizione | Disclaimer

   EN    FR    IT 

 










Sommario :    VFR   VFR Marginale   IFR   IFR Intensivo   IFR Molto Intensivo
Visibilità : 
Base nubi : 
>= 8 km
>= 3000ft
5 / 8 km
1000 / 3000 ft
1500m / 5 km
500 / 1000 ft
800 / 1500m
200 / 500 ft
< 800m
< 200 ft
Simboli :   Temporali  Nebbia  Neve Forte  Precipitazioni Forti  Vento > 20 kt
SIGMETs :   Varie  Temporali  Ghiacco  Turbolenza  Onda orograficha  Ceneri Vulcaniche






- Altitudine del aeroporto : 0 ft


ETEB - Ansbach Army Heliport

ULTIMO METAR :
  • 062056Z AUTO 00000KT 9999 CLR 11/00 A3030 RMK AO2 SLP275 T01081001 52015 $

METARs OBSOLETI :
  • 061956Z AUTO 00000KT 9999 CLR 14/M01 A3029 RMK AO2 SLP271 T01401008 $
  • 061856Z AUTO 00000KT 9999 CLR 16/M01 A3028 RMK AO2 SLP268 T01621010 $
  • 061756Z AUTO 00000KT 9999 CLR 18/M02 A3025 RMK AO2 SLP258 T01751017 10198 20174 53006 $

Previsioni scadute.



MetMap, La meteo Aeronautica in un colpo d'occhio ! - Copyright ORBIFLY Dicembre 2007 - Disclaimer

ORBIFLY MET'MAP TEAM :

Programmazione e sviluppo : Alexandra Zaïnal
Concezione : Baudouin d'Aumeries
Aiuto per la programmazione : Marc-Olivier Méhu
Supporto tecnico e logistico : Manuel Goepfert
Aiuto per la traduzione : Arnaldo La Scala

Contatto : metmap@orbifly.com




FONTI E CREDITI :

   NOAA